Weather in Neudachino

Russia / Novosibirsk Oblast     55°08′11″N   75°30′21″E
temp.,
°C
wind,
m/s
gust,
m/s
humid.,
%
clouds,
%
prec.,
mm/h
press.,
hPa
HPBL,
m
4 july, mon
mon401:00+12ene11865 0.1 100610
04:00+11ene33895 0.0 100523
07:00+11se23891 0.0 100584
10:00+17ese347129 0.0 1004599
13:00+20ese5659100 0.0 10031335
16:00+19ese5564100 0.1 1001998
19:00+18e4977100 0.3 1000522
22:00+16ne61186100 0.2 998316
5 july, tue
tue501:00+15ene91791100 2.7 996459
04:00+14ene61295100 2.8 995362
07:00+14e71395100 4.7 994391
10:00+18e61287100 0.9 994558
13:00+19ese81274100 0.9 995656
16:00+17ese6985100 0.1 996574
19:00+15ne4996100 0.6 997443
22:00+15ne51197100 0.8 998382
6 july, wed
wed601:00+14nne41096100 1.3 999322
04:00+14n4797100 0.0 1000198
07:00+14nnw489897 0.6 1001296
10:00+16n5690100 0.1 1002468
13:00+20n567598 0.1 1004920
16:00+19nne3687100 0.9 1005445
19:00+19nnw3589100 3.1 1007170
22:00+17nnw3787100 1.8 1008131
7 july, thu
thu701:00+15nne369275 1.8 1009110
04:00+15nne349293 0.0 101084
07:00+14nne359038 0.0 101195
10:00+17nne3686100 0.0 1012205
13:00+21ne346442 0.1 1013647
16:00+23nne445172 0.4 10132060
19:00+22nne35645 0.4 1013926
22:00+17nne33794 0.2 101324
8 july, fri
fri801:00+14nne368439 0.2 101380
04:00+13nne468392 0.0 101387
07:00+15nne3876100 0.0 1013199
10:00+16nne41077100 0.0 1013281
13:00+21ne575755 0.2 10121184
16:00+23nne4651100 0.0 10122359
19:00+21nne56665 0.4 1012883
22:00+17nne338229 0.2 101330